Location: Villingen
(48.0639°N, 8.4609°E)
Time: 05:02:30
(UTC+01:00)

ISS - Pass Details

Date: 10 February 2018
Orbit: 402 x 407 km, 51.6° (Epoch: 24 February)

Event Time Altitude Azimuth Distance (km) Brightness Sun altitude
Rises 18:39:03 0° 292° (WNW) 2,322 1.1 -10.3°
Reaches altitude 10° 18:41:08 10° 289° (WNW) 1,460 0.1 -10.6°
Maximum altitude 18:44:22 59° 209° (SSW) 473 -3.3 -11.2°
Enters shadow 18:47:34 10° 129° (SE) 1,454 -1.4 -11.7°
